﻿,Temp,SpC,Salinity,DO%,DO Conc,DO Charge,Depth,pH,Chl
5/28/10 0:00,,,,,,,,,
5/28/10 0:15,,,,,,,,,
5/28/10 0:30,,,,,,,,,
5/28/10 0:45,,,,,,,,,
5/28/10 1:00,,,,,,,,,
5/28/10 1:15,,,,,,,,,
5/28/10 1:30,,,,,,,,,
5/28/10 1:45,,,,,,,,,
5/28/10 2:00,,,,,,,,,
5/28/10 2:15,,,,,,,,,
5/28/10 2:30,,,,,,,,,
5/28/10 2:45,,,,,,,,,
5/28/10 3:00,,,,,,,,,
5/28/10 3:15,,,,,,,,,
5/28/10 3:30,,,,,,,,,
5/28/10 3:45,,,,,,,,,
5/28/10 4:00,,,,,,,,,
5/28/10 4:15,,,,,,,,,
5/28/10 4:30,,,,,,,,,
5/28/10 4:45,,,,,,,,,
5/28/10 5:00,,,,,,,,,
5/28/10 5:15,,,,,,,,,
5/28/10 5:30,,,,,,,,,
5/28/10 5:45,,,,,,,,,
5/28/10 6:00,,,,,,,,,
5/28/10 6:15,,,,,,,,,
5/28/10 6:30,,,,,,,,,
5/28/10 6:45,,,,,,,,,
5/28/10 7:00,,,,,,,,,
5/28/10 7:15,,,,,,,,,
5/28/10 7:30,,,,,,,,,
5/28/10 7:45,,,,,,,,,
5/28/10 8:00,,,,,,,,,
5/28/10 8:15,,,,,,,,,5.1
5/28/10 8:30,,,,,,,,,7.5
5/28/10 8:45,14.49,44.99,29.12,78.3,6.67,63,9.154,7.88,6.8
5/28/10 9:00,14.52,44.97,29.1,77.9,6.63,63,9.111,7.91,8.2
5/28/10 9:15,14.38,45.08,29.18,76.9,6.57,63,9.062,7.91,8.3
5/28/10 9:30,14.36,45.12,29.21,76.6,6.54,63,8.996,7.92,7.9
5/28/10 9:45,14.03,45.82,29.71,82.3,7.05,63,8.922,7.96,6.1
5/28/10 10:00,14.27,45.34,29.37,81.7,6.99,63,8.841,7.96,6
5/28/10 10:15,14.15,45.62,29.57,81.5,6.98,63,8.751,7.97,4.9
5/28/10 10:30,14.13,45.67,29.6,81.5,6.97,63,8.651,7.97,4.6
5/28/10 10:45,14.14,45.65,29.59,81.7,6.99,64,8.56,7.97,5.6
5/28/10 11:00,14.11,45.69,29.62,81.3,6.96,63,8.47,7.97,6.9
5/28/10 11:15,14.18,45.59,29.54,81,6.93,64,8.371,7.96,7.3
5/28/10 11:30,14.23,45.47,29.46,80.4,6.87,63,8.261,7.97,9.1
5/28/10 11:45,14.28,45.38,29.39,80,6.84,63,8.172,7.96,17.6
5/28/10 12:00,14.32,45.28,29.32,79.8,6.82,63,8.075,7.96,9.5
5/28/10 12:15,14.35,45.22,29.28,79.4,6.78,63,7.988,7.96,9.7
5/28/10 12:30,14.39,45.15,29.24,79.2,6.76,63,7.927,7.96,16.7
5/28/10 12:45,14.35,45.21,29.28,78,6.66,63,7.882,7.95,14
5/28/10 13:00,14.39,45.1,29.2,77.4,6.6,62,7.857,7.95,10.4
5/28/10 13:15,14.44,45.02,29.14,76.3,6.51,62,7.888,7.94,5.4
5/28/10 13:30,14.5,44.96,29.1,77.3,6.59,63,7.932,7.95,4.2
5/28/10 13:45,14.55,44.9,29.06,77.9,6.63,63,7.99,7.95,4.6
5/28/10 14:00,14.57,44.88,29.05,77.5,6.6,62,8.103,7.95,10.6
5/28/10 14:15,14.67,44.8,28.99,78.5,6.67,63,8.176,7.96,6.7
5/28/10 14:30,14.83,44.63,28.87,80.1,6.79,63,8.276,7.98,3.7
5/28/10 14:45,14.89,44.57,28.82,80.6,6.83,63,8.29,7.99,5.5
5/28/10 15:00,15.13,44.31,28.64,84,7.08,63,8.382,8.02,2.8
5/28/10 15:15,14.77,44.65,28.88,78.7,6.68,63,8.414,7.97,7.7
5/28/10 15:30,14.92,44.53,28.8,80.2,6.79,62,8.485,7.99,10.1
5/28/10 15:45,15.18,44.22,28.58,84.1,7.09,63,8.534,8.03,8.5
5/28/10 16:00,15.53,43.95,28.39,88.8,7.44,64,8.58,8.07,9.4
5/28/10 16:15,15.38,44.11,28.5,86.8,7.3,63,8.616,8.05,9.7
5/28/10 16:30,14.92,44.58,28.83,80.5,6.81,63,8.643,7.99,9.9
5/28/10 16:45,14.9,44.58,28.84,79.9,6.77,63,8.662,7.98,10.9
5/28/10 17:00,14.72,44.83,29.01,79.7,6.77,63,8.712,7.97,10.7
5/28/10 17:15,14.53,45.06,29.17,77.7,6.62,63,8.756,7.95,9.7
5/28/10 17:30,14.69,44.87,29.04,78.7,6.68,63,8.831,7.97,9.1
5/28/10 17:45,14.78,44.74,28.95,79.2,6.72,63,8.894,7.97,8.7
5/28/10 18:00,14.81,44.7,28.92,79,6.7,63,8.926,7.97,8.8
5/28/10 18:15,14.75,44.77,28.97,78.2,6.63,62,9.025,7.97,8.7
5/28/10 18:30,14.77,44.75,28.96,78.7,6.67,62,9.076,7.97,7.8
5/28/10 18:45,14.81,44.71,28.92,77.1,6.54,62,9.185,7.96,8
5/28/10 19:00,14.74,44.77,28.96,75.3,6.39,62,9.285,7.94,8
5/28/10 19:15,14.67,44.86,29.03,74.7,6.35,62,9.355,7.93,7.2
5/28/10 19:30,14.63,44.91,29.06,75.1,6.38,62,9.429,7.93,7.4
5/28/10 19:45,14.61,44.92,29.07,74.8,6.36,62,9.555,7.93,7.9
5/28/10 20:00,14.53,45.03,29.15,71.9,6.13,62,9.663,7.91,7.7
5/28/10 20:15,14.53,44.95,29.09,71.3,6.07,61,9.683,7.91,7.5
5/28/10 20:30,14.53,44.97,29.11,72.1,6.14,62,9.677,7.91,7.1
5/28/10 20:45,14.28,45.45,29.45,75.7,6.47,62,9.664,7.93,7.2
5/28/10 21:00,14.07,45.87,29.74,78.1,6.68,62,9.676,7.95,7.6
5/28/10 21:15,14.05,45.99,29.83,80,6.85,63,9.664,7.96,6.7
5/28/10 21:30,14.07,45.9,29.77,78,6.68,63,9.624,7.96,6.2
5/28/10 21:45,14.08,45.99,29.83,77.2,6.61,63,9.616,7.97,4.2
5/28/10 22:00,14.12,45.88,29.75,76.3,6.52,63,9.553,7.98,3.1
5/28/10 22:15,14.14,45.81,29.7,76.3,6.52,62,9.483,7.98,2.3
5/28/10 22:30,14.15,45.83,29.72,77.9,6.66,62,9.395,7.97,2.7
5/28/10 22:45,14.17,45.86,29.74,78.1,6.67,62,9.272,7.97,6.6
5/28/10 23:00,14.21,45.78,29.68,78.8,6.73,62,9.183,7.97,5.6
5/28/10 23:15,14.22,45.75,29.66,78.4,6.7,62,8.993,7.96,3.8
5/28/10 23:30,14.24,45.72,29.64,78.5,6.7,62,8.87,7.95,4.1
5/28/10 23:45,14.26,45.69,29.62,78.3,6.68,62,8.755,7.95,4.1
5/29/10 0:00,14.31,45.59,29.55,78,6.66,62,8.647,7.95,4.6
5/29/10 0:15,14.37,45.48,29.47,77.7,6.63,62,8.554,7.95,4.9
5/29/10 0:30,14.43,45.39,29.4,77.9,6.63,62,8.471,7.96,4.2
5/29/10 0:45,14.45,45.35,29.38,77.5,6.6,62,8.401,7.96,4.5
5/29/10 1:00,14.51,45.29,29.33,78,6.64,62,8.362,7.96,4.3
5/29/10 1:15,14.58,45.18,29.26,77.5,6.59,62,8.319,7.96,4
5/29/10 1:30,14.6,45.13,29.22,76.9,6.54,62,8.289,7.96,4.4
5/29/10 1:45,14.65,45.05,29.17,76.9,6.53,62,8.282,7.96,4.2
5/29/10 2:00,14.7,44.98,29.12,76.7,6.51,62,8.296,7.96,3.6
5/29/10 2:15,14.7,44.96,29.11,76.1,6.46,62,8.308,7.96,2.8
5/29/10 2:30,14.7,44.96,29.11,76,6.45,62,8.326,7.96,4.2
5/29/10 2:45,14.76,44.88,29.04,75.8,6.43,62,8.347,7.96,4
5/29/10 3:00,14.89,44.7,28.92,76.6,6.48,62,8.369,7.97,3.8
5/29/10 3:15,14.91,44.61,28.86,76.3,6.45,62,8.384,7.97,4.1
5/29/10 3:30,14.91,44.54,28.81,75.6,6.4,62,8.407,7.97,4.4
5/29/10 3:45,14.74,45.11,29.21,75.6,6.41,61,8.427,7.95,4.6
5/29/10 4:00,14.79,44.68,28.91,76,6.45,62,8.448,7.96,4.7
5/29/10 4:15,14.86,44.83,29.01,76.5,6.48,62,8.48,7.97,3.9
5/29/10 4:30,14.92,44.86,29.04,76.7,6.48,62,8.512,7.97,4.3
5/29/10 4:45,14.87,44.69,28.91,75.5,6.39,62,8.562,7.96,3.7
5/29/10 5:00,14.91,44.75,28.96,73.8,6.24,61,8.614,7.96,4.2
5/29/10 5:15,14.96,44.55,28.81,75.1,6.35,62,8.674,7.97,4.4
5/29/10 5:30,14.76,44.85,29.02,72.1,6.12,61,8.734,7.93,4.1
5/29/10 5:45,14.99,44.52,28.8,74.3,6.28,61,8.809,7.97,4.5
5/29/10 6:00,15.06,44.35,28.67,75,6.33,62,8.897,7.97,4.6
5/29/10 6:15,15.51,43.83,28.3,76.8,6.44,62,8.994,8,4.8
5/29/10 6:30,15.69,43.72,28.23,78.5,6.56,62,9.069,8.02,5.3
5/29/10 6:45,15.35,44.07,28.47,74.2,6.24,61,9.149,7.97,3.6
5/29/10 7:00,15.49,43.95,28.4,75,6.3,61,9.23,7.98,2.4
5/29/10 7:15,15.84,43.64,28.18,78.1,6.51,63,9.315,8.02,1.2
5/29/10 7:30,15.7,43.81,28.3,75.9,6.34,61,9.39,8,1.3
5/29/10 7:45,14.97,44.63,28.87,72.9,6.16,62,9.451,7.94,1.6
5/29/10 8:00,14.88,44.69,28.91,72.3,6.12,61,9.498,7.93,0.8
5/29/10 8:15,14.62,45.05,29.17,70.7,6.01,61,9.535,7.9,0.4
5/29/10 8:30,14.56,45.21,29.28,71.3,6.06,61,9.547,7.9,-0.1
5/29/10 8:45,14.51,45.29,29.34,71.6,6.09,61,9.539,7.9,0.3
5/29/10 9:00,14.49,45.37,29.4,72.4,6.16,61,9.522,7.91,-0.3
5/29/10 9:15,14.37,45.64,29.59,74.4,6.33,61,9.488,7.92,-1.2
5/29/10 9:30,14.3,45.77,29.68,75.1,6.4,61,9.459,7.93,-0.5
5/29/10 9:45,14.31,45.79,29.69,75,6.39,61,9.418,7.93,0.1
5/29/10 10:00,14.34,45.72,29.64,75.1,6.4,61,9.363,7.93,4.3
5/29/10 10:15,14.3,45.77,29.68,73.1,6.23,61,9.298,7.93,3.6
5/29/10 10:30,14.35,45.63,29.57,71.4,6.08,61,9.224,7.94,3.5
5/29/10 10:45,14.52,45.38,29.4,72.8,6.19,61,9.15,7.93,1.1
5/29/10 11:00,14.41,45.6,29.56,73.5,6.26,61,9.053,7.92,4.6
5/29/10 11:15,14.46,45.52,29.5,73.8,6.28,61,8.962,7.92,2.3
5/29/10 11:30,14.46,45.5,29.48,73.6,6.26,61,8.863,7.92,0.1
5/29/10 11:45,14.47,45.52,29.5,73,6.21,61,8.749,7.91,1
5/29/10 12:00,14.49,45.43,29.44,73.3,6.23,61,8.659,7.92,0.7
5/29/10 12:15,14.51,45.44,29.44,73,6.21,62,8.556,7.91,0.3
5/29/10 12:30,14.55,45.38,29.4,72.8,6.18,61,8.47,7.92,2.2
5/29/10 12:45,14.54,45.49,29.48,72.3,6.15,60,8.393,7.91,0.1
5/29/10 13:00,14.6,45.41,29.43,72.7,6.17,61,8.342,7.91,2.5
5/29/10 13:15,14.63,45.2,29.27,72.6,6.17,61,8.303,7.92,1.7
5/29/10 13:30,14.63,45.18,29.26,72.5,6.16,61,8.28,7.92,0.8
5/29/10 13:45,14.67,45.14,29.23,72.6,6.16,61,8.275,7.92,1.6
5/29/10 14:00,14.74,45.06,29.17,73,6.19,61,8.287,7.93,2.5
5/29/10 14:15,14.71,45.09,29.2,72.8,6.18,61,8.322,7.92,2
5/29/10 14:30,14.81,44.97,29.11,73.7,6.24,61,8.378,7.93,3.4
5/29/10 14:45,14.94,44.83,29.01,74.7,6.31,61,8.425,7.95,4.7
5/29/10 15:00,15.05,44.71,28.93,75.7,6.39,61,8.486,7.96,4.9
5/29/10 15:15,15.17,44.61,28.86,76.5,6.44,61,8.54,7.97,3.2
5/29/10 15:30,15.45,44.36,28.68,78.8,6.61,61,8.55,8,3.4
5/29/10 15:45,15.74,44.05,28.47,82.3,6.86,62,8.603,8.04,4.2
5/29/10 16:00,14.83,44.95,29.1,72.7,6.15,61,8.633,7.93,5.2
5/29/10 16:15,14.78,45.02,29.14,72.4,6.13,61,8.666,7.92,6.1
5/29/10 16:30,14.65,45.19,29.27,71.8,6.1,60,8.702,7.91,6.7
5/29/10 16:45,14.67,45.17,29.25,71.6,6.08,61,8.738,7.91,6.4
5/29/10 17:00,14.71,45.11,29.21,71.8,6.09,61,8.78,7.91,5.8
5/29/10 17:15,14.81,44.97,29.11,72.6,6.15,61,8.826,7.92,5.8
5/29/10 17:30,14.89,44.87,29.04,72.9,6.17,61,8.877,7.93,6
5/29/10 17:45,14.84,44.92,29.08,71.1,6.01,61,8.93,7.92,5.1
5/29/10 18:00,14.83,44.93,29.08,70.9,6,61,8.968,7.92,4.3
5/29/10 18:15,14.85,44.9,29.06,70.3,5.95,61,9.016,7.91,5.3
5/29/10 18:30,14.94,44.82,29,71.9,6.08,61,9.105,7.93,5.9
5/29/10 18:45,14.96,44.8,28.99,71,6,60,9.16,7.92,4.8
5/29/10 19:00,14.95,44.81,29,72.3,6.11,61,9.236,7.92,4.2
5/29/10 19:15,15.23,44.52,28.8,72.8,6.12,61,9.313,7.95,4.8
5/29/10 19:30,15.35,44.42,28.73,76,6.38,61,9.392,7.98,5
5/29/10 19:45,15.5,44.26,28.62,76,6.37,62,9.454,7.98,4.8
5/29/10 20:00,15.46,44.31,28.65,75,6.29,62,9.519,7.97,4.4
5/29/10 20:15,15.39,44.37,28.69,74.9,6.29,61,9.561,7.96,4.6
5/29/10 20:30,15.44,44.31,28.65,72.9,6.12,61,9.621,7.96,4.4
5/29/10 20:45,14.99,44.62,28.86,64.5,5.45,60,9.668,7.89,3.5
5/29/10 21:00,14.78,44.93,29.08,63.9,5.42,60,9.696,7.88,4.3
5/29/10 21:15,14.74,45.02,29.14,65.2,5.53,60,9.65,7.89,4
5/29/10 21:30,14.78,45.01,29.14,67.8,5.75,60,9.673,7.91,3.7
5/29/10 21:45,14.69,45.13,29.22,66.2,5.62,60,9.669,7.93,2.4
5/29/10 22:00,14.56,45.35,29.38,62.9,5.34,59,9.652,7.95,3.5
5/29/10 22:15,14.55,45.27,29.32,58,4.93,59,9.647,7.98,2.9
5/29/10 22:30,14.52,45.31,29.35,61.2,5.21,60,9.612,7.97,3.2
5/29/10 22:45,14.54,45.4,29.42,63.1,5.36,60,9.551,7.94,2.9
5/29/10 23:00,14.55,45.45,29.45,67.6,5.74,59,9.477,7.92,3.4
5/29/10 23:15,14.64,45.3,29.35,68.7,5.83,60,9.38,7.91,3
5/29/10 23:30,14.61,45.43,29.44,69.9,5.93,61,9.282,7.9,4.2
5/29/10 23:45,14.86,45.08,29.19,71.2,6.02,60,9.185,7.91,3.6
5/30/10 0:00,14.78,45.18,29.26,70.4,5.96,60,9.077,7.91,3.5
5/30/10 0:15,14.76,45.17,29.25,70.5,5.97,60,8.963,7.9,3.4
5/30/10 0:30,14.75,45.18,29.26,70.1,5.94,60,8.873,7.9,3.9
5/30/10 0:45,14.78,45.15,29.24,70.4,5.96,60,8.785,7.9,3.3
5/30/10 1:00,14.78,45.15,29.24,70.1,5.93,61,8.707,7.9,3.2
5/30/10 1:15,14.85,45.08,29.19,70.8,5.99,60,8.635,7.9,3.1
5/30/10 1:30,14.86,45.07,29.18,70.6,5.97,60,8.575,7.9,4.5
5/30/10 1:45,14.85,45.07,29.18,70.2,5.94,60,8.52,7.9,4.9
5/30/10 2:00,14.9,45.01,29.15,70.3,5.94,61,8.488,7.9,5
5/30/10 2:15,14.88,45.02,29.15,70.3,5.94,60,8.477,7.9,5.5
5/30/10 2:30,14.88,45,29.13,70,5.91,60,8.472,7.9,5.7
5/30/10 2:45,14.91,44.96,29.11,70,5.91,60,8.472,7.9,5.7
5/30/10 3:00,14.98,44.86,29.04,70.4,5.94,60,8.496,7.91,5.7
5/30/10 3:15,15.07,44.75,28.96,70.2,5.92,60,8.508,7.92,4.4
5/30/10 3:30,15.18,44.63,28.88,71,5.98,60,8.53,7.93,4.1
5/30/10 3:45,15.14,44.67,28.9,70.1,5.91,61,8.549,7.91,4.1
5/30/10 4:00,15.14,44.66,28.89,69.7,5.87,61,8.555,7.91,4.5
5/30/10 4:15,15.21,44.57,28.83,70.4,5.92,61,8.574,7.92,3.4
5/30/10 4:30,15.33,44.43,28.73,71.1,5.97,60,8.6,7.94,3.1
5/30/10 4:45,15.42,44.33,28.66,71.7,6.01,60,8.624,7.94,2.8
5/30/10 5:00,15.62,44.18,28.56,73.5,6.14,61,8.656,7.96,2.1
5/30/10 5:15,15.61,44.19,28.57,72.4,6.06,61,8.683,7.96,1.6
5/30/10 5:30,15.65,44.16,28.55,72.3,6.04,61,8.726,7.95,1.3
5/30/10 5:45,15.33,44.48,28.77,69.4,5.83,60,8.77,7.92,2.3
5/30/10 6:00,15.34,44.46,28.75,68.3,5.73,60,8.829,7.92,1.7
5/30/10 6:15,15.17,44.63,28.88,67.2,5.66,60,8.891,7.89,2.8
5/30/10 6:30,15.17,44.65,28.89,66.7,5.62,60,8.962,7.89,1.9
5/30/10 6:45,15.23,44.59,28.85,65.6,5.52,59,9.048,7.88,1.4
5/30/10 7:00,15.35,44.48,28.77,65.7,5.51,59,9.126,7.89,1.5
5/30/10 7:15,15.5,44.33,28.67,65.2,5.46,60,9.209,7.89,1.2
5/30/10 7:30,15.76,44.15,28.54,67.9,5.66,60,9.292,7.92,1.2
5/30/10 7:45,16.2,43.85,28.33,71.5,5.91,61,9.375,7.97,0.3
5/30/10 8:00,16.45,43.64,28.18,74.7,6.15,61,9.45,8.01,0.4
5/30/10 8:15,16.48,43.57,28.13,73.6,6.06,61,9.521,8,1.1
5/30/10 8:30,16.5,43.54,28.11,73.6,6.07,60,9.569,7.99,1.3
5/30/10 8:45,16.03,44.16,28.55,65.7,5.45,60,9.626,7.9,0.7
5/30/10 9:00,15.6,44.44,28.75,55.6,4.64,59,9.633,7.91,0.3
5/30/10 9:15,15.52,44.41,28.72,50.3,4.21,58,9.648,7.92,0.2
5/30/10 9:30,15.37,44.38,28.7,50.3,4.22,58,9.64,7.94,2.4
5/30/10 9:45,15.61,44.67,28.91,61.7,5.14,59,9.512,7.89,6.6
5/30/10 10:00,15.61,44.63,28.89,62.5,5.21,59,9.496,7.89,5
5/30/10 10:15,15.54,44.66,28.9,61.6,5.14,60,9.42,7.89,3.7
5/30/10 10:30,15.48,44.75,28.97,60.7,5.07,59,9.406,7.87,3.2
5/30/10 10:45,14.66,45.77,29.69,66.4,5.62,60,9.352,7.88,4
5/30/10 11:00,14.63,45.85,29.74,67.2,5.69,60,9.321,7.88,2.9
5/30/10 11:15,14.55,45.94,29.81,68.4,5.8,60,9.246,7.88,2.8
5/30/10 11:30,14.63,45.91,29.78,69.8,5.91,60,9.097,7.89,5.4
5/30/10 11:45,14.64,45.83,29.73,67.2,5.69,60,9.018,7.88,5.2
5/30/10 12:00,14.6,45.93,29.8,69.5,5.89,60,8.933,7.87,4.7
5/30/10 12:15,14.61,45.92,29.79,68.8,5.82,60,8.844,7.87,3.3
5/30/10 12:30,14.68,45.84,29.74,69.4,5.87,59,8.75,7.87,5.4
5/30/10 12:45,14.73,45.77,29.68,69.4,5.86,60,8.67,7.87,7.7
5/30/10 13:00,14.83,45.57,29.54,68.5,5.78,60,8.592,7.87,9.5
5/30/10 13:15,14.87,45.47,29.47,67.9,5.73,60,8.54,7.87,15.1
5/30/10 13:30,14.9,45.43,29.45,67.9,5.73,60,8.479,7.87,15.8
5/30/10 13:45,14.95,45.38,29.41,68.2,5.75,59,8.435,7.88,18
5/30/10 14:00,14.95,45.38,29.41,67.8,5.71,60,8.388,7.87,17.1
5/30/10 14:15,14.98,45.36,29.39,67.3,5.67,59,8.359,7.87,18.7
5/30/10 14:30,14.94,45.4,29.42,66.4,5.59,60,8.345,7.86,20.4
5/30/10 14:45,14.93,45.4,29.42,65.5,5.52,59,8.344,7.85,24.3
5/30/10 15:00,14.97,45.36,29.4,65.3,5.5,60,8.373,7.85,17.3
5/30/10 15:15,14.99,45.33,29.38,65.6,5.52,59,8.402,7.85,17.2
5/30/10 15:30,15.04,45.29,29.34,66.2,5.57,60,8.458,7.86,12.5
5/30/10 15:45,15.08,45.25,29.32,66.5,5.59,60,8.497,7.86,4.2
5/30/10 16:00,14.85,45.63,29.59,65.4,5.52,59,8.544,7.84,1.6
5/30/10 16:15,14.86,45.63,29.59,67.5,5.69,60,8.593,7.86,2.1
5/30/10 16:30,14.95,45.52,29.51,67.4,5.68,60,8.644,7.86,3.1
5/30/10 16:45,14.99,45.48,29.48,67.2,5.66,59,8.685,7.86,3.2
5/30/10 17:00,15.07,45.4,29.42,67.3,5.66,60,8.74,7.86,5.9
5/30/10 17:15,15.09,45.37,29.4,64.7,5.44,59,8.769,7.84,6.1
5/30/10 17:30,15.11,45.36,29.4,64,5.38,59,8.812,7.83,17.3
5/30/10 17:45,15.28,45.3,29.36,64.1,5.37,59,8.848,7.83,23.9
5/30/10 18:00,15.33,45.27,29.34,64.6,5.4,59,8.885,7.83,20.5
5/30/10 18:15,15.45,45.18,29.27,65.4,5.46,59,8.934,7.84,26.1
5/30/10 18:30,15.48,45.15,29.25,64.9,5.41,60,8.982,7.84,22.9
5/30/10 18:45,15.23,45.36,29.4,62.4,5.23,59,9.03,7.81,21.6
5/30/10 19:00,15.43,45.18,29.27,61.5,5.14,59,9.097,7.8,20.4
5/30/10 19:15,15.76,44.94,29.11,62.4,5.18,59,9.173,7.82,12.2
5/30/10 19:30,15.85,45.09,29.22,69.5,5.76,60,9.223,7.88,9.5
5/30/10 19:45,15.81,45.14,29.25,69.3,5.75,60,9.27,7.88,9.3
5/30/10 20:00,15.76,45.2,29.29,69,5.73,60,9.334,7.87,10.1
5/30/10 20:15,15.59,45.38,29.42,71,5.91,60,9.387,7.88,14.5
5/30/10 20:30,15.55,45.42,29.45,71.4,5.94,60,9.438,7.89,10.7
5/30/10 20:45,15.6,45.38,29.42,70.9,5.9,60,9.502,7.88,11.9
5/30/10 21:00,15.62,45.36,29.41,70.3,5.85,60,9.561,7.88,12.7
5/30/10 21:15,15.62,45.35,29.4,69.1,5.75,60,9.601,7.87,10
5/30/10 21:30,15.62,45.34,29.39,68.6,5.7,60,9.637,7.86,8.3
5/30/10 21:45,15.64,45.32,29.38,67.6,5.62,60,9.656,7.86,15.9
5/30/10 22:00,15.52,45.32,29.38,65.5,5.46,60,9.657,7.84,22.7
5/30/10 22:15,15.59,45.35,29.4,67.2,5.59,60,9.651,7.85,22.4
5/30/10 22:30,15.52,45.33,29.38,64.4,5.37,59,9.642,7.82,19.2
5/30/10 22:45,15.61,45.32,29.38,65.8,5.48,59,9.61,7.84,21.7
5/30/10 23:00,15.71,45.25,29.33,67.1,5.57,59,9.566,7.85,20.4
5/30/10 23:15,15.6,45.29,29.36,64.6,5.37,60,9.511,7.83,22.3
5/30/10 23:30,15.13,45.88,29.78,77.5,6.49,61,9.39,7.94,22.7
5/30/10 23:45,15.12,45.91,29.8,77.2,6.47,61,9.359,7.94,23.2
5/31/10 0:00,15.14,45.89,29.78,77.6,6.5,61,9.283,7.94,21.9
5/31/10 0:15,15.27,45.74,29.68,76.9,6.43,61,9.2,7.95,21.8
5/31/10 0:30,15.13,45.89,29.78,76.6,6.42,61,9.102,7.93,22.1
5/31/10 0:45,15.16,45.86,29.76,76.7,6.43,61,8.993,7.94,20.4
5/31/10 1:00,15.18,45.85,29.75,76.5,6.4,61,8.887,7.94,19.7
5/31/10 1:15,15.17,45.87,29.77,76.2,6.38,60,8.781,7.93,20.9
5/31/10 1:30,15.19,45.86,29.76,77.1,6.45,61,8.684,7.94,20.1
5/31/10 1:45,15.21,45.84,29.75,76.9,6.44,60,8.591,7.94,19.8
5/31/10 2:00,15.24,45.81,29.72,76.9,6.43,60,8.516,7.93,18.6
5/31/10 2:15,15.27,45.76,29.69,77.1,6.44,61,8.454,7.94,18.3
5/31/10 2:30,15.28,45.73,29.67,76.3,6.38,61,8.405,7.93,17.2
5/31/10 2:45,15.29,45.73,29.67,75.9,6.34,60,8.372,7.93,14.7
5/31/10 3:00,15.29,45.71,29.66,75.1,6.27,61,8.359,7.92,15
5/31/10 3:15,15.36,45.66,29.62,75.6,6.31,61,8.369,7.92,12.2
5/31/10 3:30,15.43,45.6,29.57,75.9,6.33,61,8.395,7.93,8.2
5/31/10 3:45,15.47,45.57,29.56,76.5,6.37,61,8.424,7.93,9.4
5/31/10 4:00,15.39,45.6,29.58,74.7,6.23,60,8.453,7.91,10.9
5/31/10 4:15,15.5,45.49,29.5,74.4,6.2,60,8.477,7.92,13.3
5/31/10 4:30,15.58,45.43,29.46,74.3,6.18,60,8.508,7.92,9.8
5/31/10 4:45,15.75,45.3,29.37,74.1,6.15,60,8.524,7.91,8.8
5/31/10 5:00,15.81,45.22,29.31,73.4,6.08,60,8.55,7.91,8.8
5/31/10 5:15,15.88,45.17,29.27,72.7,6.02,60,8.573,7.91,9.8
5/31/10 5:30,15.94,45.13,29.25,73.2,6.06,60,8.597,7.91,10.3
5/31/10 5:45,16,45.09,29.22,74,6.11,61,8.619,7.92,10
5/31/10 6:00,15.93,45.16,29.27,72.8,6.03,60,8.667,7.91,11.1
5/31/10 6:15,15.82,45.23,29.32,71.1,5.89,60,8.711,7.89,8.7
5/31/10 6:30,15.89,45.2,29.29,71.7,5.94,60,8.753,7.9,11.8
5/31/10 6:45,15.88,45.24,29.33,73.4,6.07,60,8.808,7.91,11.9
5/31/10 7:00,15.88,45.24,29.32,72.8,6.03,60,8.858,7.91,13.7
5/31/10 7:15,15.98,45.12,29.24,72.6,6,60,8.92,7.9,13.5
5/31/10 7:30,16.19,44.88,29.07,74.9,6.17,60,8.981,7.93,13.6
5/31/10 7:45,15.99,45.13,29.24,73.9,6.11,60,9.037,7.92,13.6
5/31/10 8:00,15.77,45.44,29.46,77.4,6.42,60,9.109,7.93,14.3
5/31/10 8:15,15.72,45.51,29.52,77.3,6.41,61,9.193,7.93,15.5
5/31/10 8:30,15.76,45.45,29.47,75.5,6.26,60,9.276,7.92,14
5/31/10 8:45,15.82,45.44,29.47,76.8,6.36,61,9.342,7.93,14.3
5/31/10 9:00,15.79,45.57,29.56,81.5,6.75,62,9.389,7.97,9.3
5/31/10 9:15,15.84,45.54,29.54,81.8,6.77,61,9.44,7.97,9.4
5/31/10 9:30,15.82,45.55,29.55,81,6.7,61,9.477,7.96,10.3
5/31/10 9:45,15.79,45.56,29.55,80.2,6.64,61,9.517,7.95,7.2
5/31/10 10:00,15.77,45.57,29.56,78.8,6.53,61,9.534,7.95,7.6
5/31/10 10:15,15.76,45.58,29.57,78,6.46,61,9.531,7.94,6.3
5/31/10 10:30,15.77,45.56,29.56,77.4,6.41,61,9.518,7.93,9.4
5/31/10 10:45,15.78,45.55,29.55,76.9,6.37,61,9.502,7.93,10.2
5/31/10 11:00,15.23,46.19,30,81.6,6.82,61,9.463,7.96,8.7
5/31/10 11:15,15.19,46.23,30.03,82,6.85,61,9.43,7.97,9.2
5/31/10 11:30,15.18,46.25,30.04,81.8,6.84,61,9.382,7.97,9.5
5/31/10 11:45,15.26,46.05,29.9,79.6,6.65,61,9.332,7.95,14.4
5/31/10 12:00,15.21,46.16,29.98,80.1,6.69,61,9.262,7.95,15
5/31/10 12:15,15.16,46.25,30.04,81.1,6.78,61,9.192,7.97,15.6
5/31/10 12:30,15.19,46.22,30.02,80.8,6.75,61,9.112,7.96,15.9
5/31/10 12:45,15.21,46.18,29.99,81.1,6.78,62,9.021,7.97,11.9
5/31/10 13:00,15.23,46.14,29.97,80.8,6.75,61,8.95,7.97,11.5
5/31/10 13:15,15.21,46.16,29.97,78.9,6.59,61,8.877,7.95,8.8
5/31/10 13:30,15.22,46.14,29.96,78.3,6.54,61,8.796,7.95,7.3
5/31/10 13:45,15.23,46.12,29.95,78.9,6.59,61,8.721,7.95,9.3
5/31/10 14:00,15.24,46.09,29.92,78.4,6.55,61,8.668,7.94,9.3
5/31/10 14:15,15.27,46.06,29.91,79.5,6.64,61,8.618,7.95,9.5
5/31/10 14:30,15.27,46.04,29.9,78.9,6.59,61,8.57,7.95,10.7
5/31/10 14:45,15.28,46.03,29.89,79,6.59,61,8.544,7.95,8.7
5/31/10 15:00,15.29,46.02,29.88,78.5,6.55,61,8.516,7.95,8.5
5/31/10 15:15,15.3,46.01,29.87,78.5,6.55,61,8.502,7.94,9.1
5/31/10 15:30,15.31,45.99,29.85,78.2,6.52,61,8.498,7.94,8.8
5/31/10 15:45,15.32,45.98,29.85,77.9,6.5,61,8.513,7.94,8.5
5/31/10 16:00,15.33,45.96,29.83,77.8,6.49,61,8.543,7.94,8.4
5/31/10 16:15,15.35,45.92,29.81,77.2,6.43,61,8.569,7.94,9.2
5/31/10 16:30,15.37,45.88,29.78,76.9,6.41,60,8.606,7.93,9.5
5/31/10 16:45,15.41,45.83,29.75,76.7,6.39,60,8.65,7.93,8.6
5/31/10 17:00,15.47,45.77,29.7,76.5,6.37,60,8.674,7.93,8.2
5/31/10 17:15,15.51,45.71,29.66,75.7,6.3,60,8.705,7.92,8.3
5/31/10 17:30,15.55,45.66,29.62,75,6.24,60,8.758,7.92,8.9
5/31/10 17:45,15.62,45.56,29.55,74,6.15,60,8.797,7.91,8.6
5/31/10 18:00,15.71,45.44,29.46,73.7,6.11,60,8.833,7.91,8.5
5/31/10 18:15,15.65,45.51,29.51,72.9,6.05,60,8.866,7.91,8
5/31/10 18:30,15.47,45.75,29.69,73.6,6.13,61,8.908,7.91,8.8
5/31/10 18:45,15.45,45.77,29.7,73.3,6.11,60,8.947,7.9,8.3
5/31/10 19:00,15.43,45.79,29.72,73.9,6.15,60,8.992,7.91,7.8
5/31/10 19:15,15.42,45.8,29.72,74.3,6.2,60,9.049,7.91,6.8
5/31/10 19:30,15.42,45.8,29.72,74.8,6.23,60,9.1,7.91,7.4
5/31/10 19:45,15.42,45.79,29.72,74.7,6.23,60,9.144,7.92,7
5/31/10 20:00,15.43,45.79,29.71,74.8,6.23,61,9.198,7.91,7.2
5/31/10 20:15,15.43,45.79,29.72,74.7,6.23,60,9.254,7.91,6.3
5/31/10 20:30,15.42,45.8,29.72,74.2,6.18,60,9.303,7.91,6.9
5/31/10 20:45,15.41,45.8,29.72,73.4,6.12,60,9.36,7.91,6.8
5/31/10 21:00,15.4,45.81,29.73,73.3,6.11,60,9.407,7.9,6.9
5/31/10 21:15,15.41,45.81,29.73,73.6,6.14,60,9.458,7.91,7
5/31/10 21:30,15.4,45.81,29.73,72.6,6.06,60,9.475,7.9,7.7
5/31/10 21:45,15.43,45.8,29.72,74,6.17,60,9.514,7.91,7.2
5/31/10 22:00,15.41,45.8,29.72,73.2,6.1,60,9.565,7.9,7.5
5/31/10 22:15,15.41,45.79,29.72,72.5,6.04,60,9.596,7.9,7.7
5/31/10 22:30,15.45,45.75,29.69,73.4,6.11,60,9.619,7.91,7.5
5/31/10 22:45,15.46,45.74,29.68,71.5,5.96,60,9.657,7.9,6.6
5/31/10 23:00,15.46,45.67,29.63,72.3,6.02,60,9.7,7.91,7.1
5/31/10 23:15,15.32,45.69,29.64,67.8,5.66,60,9.715,7.89,6.7
5/31/10 23:30,15.27,45.68,29.64,68.35714286,5.705714286,58,9.709,7.95,7.5
5/31/10 23:45,15.28,45.66,29.62,68.51428571,5.717142857,56,9.676,7.99,7
6/1/10 0:00,15.28,45.63,29.6,68.27142857,5.695714286,56,9.646,7.98,7.7
6/1/10 0:15,15.31,45.59,29.57,68,5.671428571,54,9.543,8,7.2
6/1/10 0:30,15.32,45.54,29.54,67.71428571,5.647142857,54,9.491,8.03,7.2
6/1/10 0:45,15.36,45.49,29.5,67.54285714,5.631428571,58,9.413,7.99,7.3
6/1/10 1:00,15.34,45.81,29.73,65.6,5.47,60,9.318,7.95,7.9
6/1/10 1:15,15.34,45.88,29.78,68.3,5.7,60,9.225,7.93,8.4
6/1/10 1:30,15.34,45.9,29.79,70.6,5.89,60,9.114,7.9,8.4
6/1/10 1:45,15.35,45.87,29.77,70.6,5.89,60,9.023,7.91,6.9
6/1/10 2:00,15.38,45.81,29.73,70.7,5.89,60,8.92,7.9,2.2
6/1/10 2:15,15.38,45.8,29.72,69.8,5.82,60,8.827,7.89,3.1
6/1/10 2:30,15.39,45.78,29.7,69.5,5.79,59,8.751,7.88,4.6
6/1/10 2:45,15.41,45.74,29.68,69.4,5.78,60,8.68,7.88,5.6
6/1/10 3:00,15.45,45.66,29.62,68.9,5.74,60,8.619,7.88,6
6/1/10 3:15,15.5,45.58,29.57,68.7,5.72,59,8.581,7.88,6.2
6/1/10 3:30,15.55,45.5,29.51,68.7,5.72,60,8.565,7.88,6.4
6/1/10 3:45,15.58,45.43,29.46,68.6,5.71,59,8.553,7.88,6.4
6/1/10 4:00,15.58,45.45,29.47,68.3,5.68,60,8.571,7.87,6.2
6/1/10 4:15,15.68,45.3,29.37,68,5.65,59,8.611,7.87,6.4
6/1/10 4:30,15.85,45.11,29.23,68.6,5.68,60,8.653,7.89,5.8
6/1/10 4:45,15.94,44.99,29.15,69.1,5.72,60,8.698,7.89,5.1
6/1/10 5:00,15.94,44.98,29.14,68.2,5.64,59,8.734,7.89,5.3
6/1/10 5:15,15.95,44.95,29.12,67.4,5.58,59,8.766,7.88,5.2
6/1/10 5:30,15.95,44.93,29.1,66.3,5.49,60,8.79,7.87,4.5
6/1/10 5:45,16.08,44.77,28.99,66.8,5.52,59,8.817,7.88,5.3
6/1/10 6:00,15.68,45.07,29.2,63.6,5.29,59,8.824,7.84,5.5
6/1/10 6:15,15.51,45.16,29.26,62,5.17,59,8.843,7.83,5.3
6/1/10 6:30,15.47,45.21,29.3,60.8,5.08,58,8.859,7.81,5
6/1/10 6:45,15.47,45.26,29.33,61.3,5.12,59,8.887,7.82,4.7
6/1/10 7:00,15.54,45.21,29.3,61.9,5.16,59,8.911,7.83,4.7
6/1/10 7:15,15.61,45.13,29.24,62.6,5.21,59,8.947,7.83,6
6/1/10 7:30,15.59,45.1,29.22,62.1,5.17,59,8.988,7.83,4.3
6/1/10 7:45,15.57,45.09,29.21,61.4,5.11,58,9.026,7.82,2.3
6/1/10 8:00,15.56,45.11,29.22,61.7,5.14,59,9.07,7.82,1.6
6/1/10 8:15,15.61,45.08,29.21,61.4,5.11,59,9.13,7.82,1
6/1/10 8:30,15.66,45.04,29.18,61.8,5.14,59,9.187,7.82,2.9
6/1/10 8:45,15.65,45.02,29.16,59.7,4.97,59,9.255,7.8,0.8
6/1/10 9:00,15.74,44.98,29.14,60.6,5.04,59,9.309,7.82,1.4